Вернуться в каталог

COSMOS 1027

АктивенВоенныеPO
NORAD 10991·PAYLOAD·🇷🇺 Russia

Запущен Jul 27, 1978 с Plesetsk Cosmodrome

Loading…

Ближайшие Пролёты (ближайшие 24 часа)

TLE

СвежийSource: Space-Track

Эпоха: Sep 14, 2026, 14:04 UTC

1 10991U 78074A   26257.58630082  .00000058  00000-0  43269-4 0  9991
2 10991  82.9368 310.7622 0027703 135.7459  29.0092 13.76701872417402

Отслеживайте COSMOS 1027 в реальном времени с AllMySat

Download on the App Store